Location: Del Amo
(33.8464°N, 118.2104°W)
Time: 19:02:03
(UTC+00:00)

Vanguard 3 - Pass Details

Date: 13 September 2024
Orbit: 507 x 3224 km, 33.4° (Epoch: 05 October)

Event Time Altitude Azimuth Distance (km) Brightness Sun altitude
Rises 14:35:33 0° 236° (SW) 6,725 11.4 11.7°
Reaches altitude 10° 14:39:47 10° 234° (SW) 5,905 11.1 12.5°
Maximum altitude 14:59:05 68° 156° (SSE) 3,322 10.7 16.5°
Drops below altitude 10° 15:15:41 10° 79° (ENE) 5,199 12.8 19.9°
Sets 15:19:07 0° 76° (ENE) 5,922 12.7 20.6°
